Find Starlink 5626

NORAD ID: 55435 Int'l Des: 2023-014 Owner: SPXS Country: US Constellation: starlink operational
LEOCIRCULAR

リアルタイム位置

3D地球を読み込み中...

Starlink 5626について

説明を読み込み中...

次回通過

Passes for default location (London). Set your location on the main map for personalized predictions.

高度履歴

Loading altitude history...

軌道要素

1 55435U 23014AW 26132.87434432 .00000150 00000-0 20360-4 0 9992
2 55435 69.9979 302.5934 0003079 267.3804 92.7002 14.98330592180685
Epoch: May 12, 2026 • Age: 11 hours

現在のステータス

高度 595.3 km
速度 7.56 km/s
衛星直下点 -69.27°S, 153.13°W
打ち上げ日 Jan 31, 2023
運用期間 3.2 years
タイプ internet

技術仕様

分類 Payload
質量 305.00 kg
乾燥質量 290.00 kg
総質量 305.00 kg
長さ 0.20 m
直径 2.80 m
スパン 9.00 m
形状 Box + pan
製造者 SPXS
バスタイプ Starlink
フェーズステータス In Orbit
所有者/国 SPXS/US

Most Searched